Flag for U.S.A. Weather past 2 weeks in Aurora, Colorado, U.S.A.

23 °F

Scattered clouds.

Feels Like: 18 °F
Forecast: 18 / 29 °F
Wind: 3 mph from Southeast

Location: Buckley Air Force Base

Current Time: Nov 30, 2015 at 10:22:44 AM

Latest Report: Nov 30, 2015 at 9:58 AM

Visibility: 10 mi

Pressure: 30.04 "Hg (24.35 "Hg at 1647m altitude)

Humidity: 84%

Dew point: 18 °F

Location of AuroraLocation

Historic Weather in Aurora — Graph


Aurora temperature yesterday

Maximum temperature yesterday: 25 °F (at 1:58 PM)
Minimum temperature yesterday: 19 °F (at 1:58 AM)
Average temperature yesterday: 21 °F

Past Weeks' High & Low Weather Summary

High63 °F (Nov 15, 1:58 PM)100% (Nov 16, 4:58 PM)30.60 "Hg (Nov 16, 4:58 PM)
Low5 °F (Nov 27, 5:58 AM)9% (Nov 15, 1:58 PM)29.36 "Hg (Nov 16, 10:58 AM)
Average32 °F65%29.99 "Hg
* Reported Nov 15 8:58 AM — Nov 30 8:58 AM, Aurora, Weather by CustomWeather, © 2015

Note: Actual official high and low records may vary slightly from our data, if they occured in-between our weather recording intervals... More about our weather records


Aurora weather history for previous 24 hours

Time TempWeatherWind HumidityBarometerVisibility
8:58 AM
Mon, Nov 30
21 °FIce fog.5 mph96%30.06 "Hg6 mi
7:58 AM20 °FIce fog.3 mph99%30.06 "Hg6 mi
6:58 AM20 °FLight snow. Ice fog.1 mph99%30.04 "Hg4 mi
5:58 AM20 °FLight snow. Ice fog.5 mph99%30.02 "Hg4 mi
4:58 AM20 °FLight snow. Ice fog.No wind99%30.03 "Hg2 mi
3:58 AM20 °FLight snow. Ice fog.2 mph99%30.03 "Hg3 mi
2:58 AM21 °FLight snow. Ice fog.5 mph99%30.02 "Hg2 mi
1:58 AM22 °FLight snow. Ice fog.10 mph99%30.02 "Hg2 mi
12:58 AM22 °FLight snow. Ice fog.7 mph99%30.03 "Hg2 mi
11:58 PM
Sun, Nov 29
21 °FLight snow. Ice fog.5 mph98%30.04 "Hg2 mi
9:58 PM21 °FLight snow. Ice fog.No wind99%30.10 "Hg1 mi
8:58 PM21 °FLight snow. Ice fog.1 mph97%30.12 "Hg1 mi
7:58 PM20 °FLight snow. Ice fog.No wind98%30.13 "Hg1 mi
6:58 PM21 °FLight snow. Ice fog.No wind98%30.14 "Hg1 mi
5:58 PM21 °FLight snow. Ice fog.5 mph88%30.14 "Hg2 mi
4:58 PM22 °FOvercast.7 mph84%30.13 "Hg10 mi
3:58 PM22 °FOvercast.7 mph83%30.13 "Hg7 mi
2:58 PM24 °FOvercast.8 mph81%30.12 "Hg7 mi
1:58 PM25 °FOvercast.2 mph76%30.10 "Hg10 mi
12:58 PM24 °FPartly sunny.3 mph77%30.11 "Hg10 mi
11:58 AM23 °FPartly sunny.2 mph79%30.15 "Hg10 mi
10:58 AM22 °FMore clouds than sun.5 mph80%30.18 "Hg10 mi
Weather by CustomWeather, © 2015

See weather overviewHow to use our weather pages